Retour au catalogue

HULIANWANG DIGUI-19

ActifCommunicationsLEO
NORAD 62979·PAYLOAD·🇨🇳 China

Lancé Feb 11, 2025 depuis Wenchang Space Launch Site

Loading…

Prochains Passages (prochaines 24 heures)

TLE

FraisSource: Space-Track

Époque: Sep 14, 2026, 21:35 UTC

1 62979U 25030J   26257.89975123 -.00000101  00000-0  50576-4 0  9999
2 62979  50.0043 274.0253 0000473  16.1106 343.9781 13.29321375 77790

Suivez HULIANWANG DIGUI-19 en temps réel avec AllMySat

Download on the App Store